Temp
68 63 61 67 70 72 72 70 69 73 80 76 74 76 81 85 84 84 85 85 86 88 93 93 85 83 82 81 79 79 79 77 80 81 81 81 81 82 82 82 80 79 79 76
65 59 70 74 73 70 69 67 68 75 79 76 73 73 80 83 83 84 84 85 86 88 91 92 81 79 79 78 78 78 77 77 79 82 82 83 83 84 84 84 79 79 78 74
61 65 73 71 69 67 66 65 66 67 74 76 72 68 72 80 84 86 86 87 88 89 89 87 79 78 79 77 77 77 77 77 80 80 80 79 79 80 80 80 80 78 77 76
63 72 70 69 67 70 62 71 69 67 65 59 72 58 69 76 78 81 84 86 88 90 90 84 80 78 78 78 79 79 78 77 78 78 79 77 80 79 82 80 82 78 77 76
59 64 66 66 68 73 67 74 70 68 64 63 65 60 67 75 72 77 83 85 89 90 87 82 81 79 80 79 79 79 78 78 77 78 79 78 77 80 81 81 74 75 73 72
63 74 71 71 74 74 74 70 69 68 65 53 61 60 62 69 73 78 84 86 89 85 82 81 81 80 79 81 80 78 77 76 77 78 77 76 75 75 78 77 73 73 72 70
59 62 70 73 68 72 70 63 54 50 51 50 65 61 62 73 79 80 83 85 86 83 81 79 78 79 79 79 79 79 77 76 77 77 77 76 75 74 73 74 73 72 70 70
50 48 62 71 68 65 65 64 58 46 49 56 65 56 66 76 81 83 85 87 86 83 81 80 80 79 80 79 79 79 78 77 77 78 77 77 76 80 77 76 76 77 70 74
50 53 69 70 73 73 65 60 72 63 64 59 65 67 72 75 78 82 83 85 82 81 79 79 80 80 80 79 78 78 78 78 78 78 77 77 77 75 77 75 76 72 74 75
54 47 66 68 73 74 70 73 59 63 49 48 59 61 61 72 77 80 81 83 84 80 79 80 80 79 81 80 79 79 80 78 79 79 78 79 77 78 78 76 75 73 74 76
54 52 58 66 63 64 67 64 66 66 63 53 53 60 72 73 79 80 83 85 81 79 80 80 81 81 82 81 81 79 79 79 78 79 79 78 78 79 78 76 77 74 74 76
54 51 48 59 70 74 71 67 66 58 54 63 64 62 75 79 80 83 86 83 81 81 81 82 82 81 81 81 80 79 79 80 80 80 79 78 78 79 77 75 75 74 74 77
44 50 47 53 64 69 66 68 68 68 67 58 57 59 79 79 80 81 81 80 80 80 81 82 82 81 81 81 80 80 80 81 81 81 79 77 75 77 74 75 74 75 74 75
47 47 50 51 57 65 61 65 68 65 60 62 62 66 74 78 79 80 80 79 80 80 80 81 81 81 82 81 81 81 81 82 81 81 79 77 76 75 75 75 75 75 75 75
48 45 52 55 56 56 61 64 66 63 65 61 66 65 75 80 79 81 81 80 79 81 80 80 80 81 82 81 81 82 82 81 81 80 79 77 76 76 77 76 75 75 74 73
48 42 51 50 57 57 56 62 66 66 67 66 68 66 79 82 84 81 79 80 80 81 81 81 81 82 81 81 81 81 81 81 81 79 79 78 78 76 76 75 75 74 70 72
41 43 47 46 57 55 52 60 64 66 69 68 63 71 79 77 79 81 82 81 82 83 82 81 81 81 81 81 81 80 81 82 80 79 80 78 78 77 76 77 75 71 71 64
44 42 46 49 54 41 59 68 70 67 69 72 72 75 78 79 83 86 89 85 84 85 84 83 83 82 82 83 83 82 83 81 81 80 80 79 79 78 77 77 75 73 69 65
53 44 39 45 48 57 59 58 61 64 63 65 67 75 78 82 81 81 87 90 88 87 87 86 86 84 83 83 83 83 82 81 81 81 80 80 81 78 77 76 74 74 70 71
53 50 40 45 44 44 52 59 64 63 57 62 63 65 66 71 69 78 78 83 89 90 89 87 86 85 83 83 83 81 81 81 81 82 82 82 82 79 77 75 74 75 73 73
41 41 37 39 47 51 57 62 64 50 52 61 63 64 64 65 74 73 76 78 83 89 88 88 86 83 82 83 82 80 81 80 83 84 84 82 81 79 78 75 75 74 75 74
40 37 38 39 42 41 58 60 54 56 61 62 64 65 64 67 69 72 75 77 81 85 88 87 85 84 83 83 82 81 80 83 85 85 84 82 79 80 79 75 75 75 74 72
37 42 41 46 40 53 57 58 62 62 62 63 64 66 66 67 69 73 75 77 80 85 87 88 86 83 83 83 83 81 82 84 85 83 81 80 79 79 78 75 74 76 75 76
47 51 44 49 54 56 52 59 62 63 63 66 68 68 69 68 71 73 76 78 81 84 85 87 87 84 81 83 84 84 84 86 84 81 80 80 78 77 78 79 78 79 77 78
39 41 44 50 54 57 54 55 59 60 64 66 68 69 69 71 72 74 76 78 81 85 87 88 86 85 83 84 84 86 86 85 82 80 80 79 80 77 77 79 80 80 79 76
47 45 40 39 52 52 53 56 59 58 59 64 66 68 71 73 73 75 76 79 80 84 88 87 86 86 86 86 86 86 88 85 82 79 81 81 82 79 80 79 77 45 49 54
MSLP
1006.12 1005.78 1003.06 1000.51 1001.74 1002.06 1001.78 1001.08 1000.26 1000.79 1000.98 1001.11 1000.42 999.44 999.31 999.40 999.87 999.49 999.18 999.08 998.79 998.47 998.27 998.71 999.97 1000.31 1000.75 1001.52 1002.26 1002.91 1003.75 1004.51 1004.92 1005.47 1005.77 1006.29 1006.76 1007.12 1007.43 1007.65 1007.88 1008.19 1008.24 1008.60
1004.69 1002.30 998.11 1001.99 1001.89 1001.95 1001.87 1001.04 1000.07 1000.42 1000.61 1000.36 1000.52 999.43 999.08 998.88 998.70 998.90 998.40 998.15 998.11 997.82 997.85 998.29 999.94 1000.47 1001.05 1001.60 1002.27 1002.99 1003.84 1004.66 1004.91 1005.21 1005.66 1005.96 1006.35 1006.69 1007.00 1007.24 1007.76 1007.85 1007.88 1008.40
1001.23 997.60 1001.59 1000.83 1000.96 1000.95 1000.51 1000.51 1000.93 1000.54 1000.61 1000.40 1000.38 999.43 998.74 998.61 998.12 997.64 997.57 997.50 997.40 997.13 997.42 998.25 999.85 1000.50 1001.02 1001.55 1002.32 1003.10 1003.87 1004.59 1004.94 1005.37 1006.12 1006.58 1006.87 1007.05 1006.94 1007.04 1007.20 1007.52 1007.82 1007.94
1001.59 999.69 999.81 999.95 999.39 999.59 999.06 1000.81 1001.38 1001.20 1001.22 999.71 1000.59 998.02 997.54 997.43 996.76 996.79 996.55 996.52 996.26 996.41 996.96 998.35 999.53 1000.44 1000.93 1001.60 1002.40 1003.16 1003.95 1004.62 1005.29 1005.75 1005.85 1006.14 1005.98 1006.05 1006.36 1006.76 1006.94 1007.38 1007.57 1007.64
999.56 999.44 998.68 997.93 996.13 998.94 997.79 1000.13 1000.58 1000.98 1000.82 1000.48 999.68 998.84 996.34 997.07 996.24 995.69 995.53 995.62 995.58 995.93 996.95 998.31 999.31 1000.23 1000.88 1001.72 1002.27 1003.20 1004.02 1004.73 1005.41 1005.83 1005.87 1006.16 1006.27 1006.41 1006.55 1006.79 1007.22 1007.22 1007.44 1007.75
1000.40 999.01 998.49 996.20 997.82 998.10 999.57 999.98 1000.23 1000.46 1000.40 999.02 998.96 998.72 996.76 995.91 995.14 994.62 994.47 994.56 994.66 996.28 997.36 998.42 999.47 1000.24 1001.00 1001.61 1002.44 1003.33 1004.13 1004.83 1005.44 1005.84 1006.17 1006.31 1006.55 1006.61 1006.49 1006.62 1006.80 1006.79 1007.12 1007.62
1000.10 998.93 998.18 997.36 997.08 997.82 998.68 999.19 998.88 999.19 998.70 997.23 998.18 997.29 995.66 995.19 994.13 994.04 993.90 994.18 994.89 996.39 997.34 998.50 999.31 1000.01 1000.91 1001.53 1002.43 1003.43 1004.14 1004.84 1005.43 1005.79 1006.08 1006.32 1006.57 1006.74 1006.75 1006.64 1006.63 1006.66 1007.03 1007.24
1000.06 998.46 997.36 996.36 995.67 995.44 996.29 996.55 995.63 995.99 996.32 996.18 996.64 995.08 993.88 994.11 993.70 993.59 993.66 993.89 994.84 996.26 997.33 998.18 999.01 999.84 1000.68 1001.64 1002.44 1003.19 1004.07 1004.72 1005.37 1005.69 1005.99 1006.29 1006.49 1006.16 1006.28 1006.35 1006.36 1006.35 1006.88 1006.89
999.29 997.23 995.98 995.89 995.69 995.05 995.39 995.07 995.34 995.15 995.35 995.05 994.20 994.26 993.94 993.92 992.63 992.47 992.63 993.45 994.71 996.07 997.08 997.98 998.92 999.88 1000.66 1001.64 1002.45 1003.20 1003.95 1004.59 1005.21 1005.56 1005.92 1006.07 1006.23 1006.40 1006.18 1006.37 1006.53 1006.88 1006.79 1006.84
1000.98 998.26 995.39 995.59 995.32 994.68 994.08 995.27 995.29 994.87 994.40 994.20 993.87 993.35 992.92 991.83 991.39 991.66 992.10 992.84 994.06 995.85 996.97 997.97 998.88 999.82 1000.72 1001.63 1002.51 1003.32 1003.97 1004.51 1004.99 1005.38 1005.67 1005.66 1006.02 1006.12 1006.22 1006.36 1006.43 1006.64 1006.80 1006.73
1002.84 999.91 995.92 995.11 993.65 992.41 993.10 993.41 993.96 994.26 994.11 993.61 993.19 992.65 992.28 992.05 991.24 991.21 991.60 992.55 994.12 995.67 996.65 997.75 998.72 999.84 1000.65 1001.49 1002.30 1003.30 1003.90 1004.36 1004.85 1005.22 1005.50 1005.63 1005.68 1005.98 1006.12 1006.22 1006.21 1006.55 1006.77 1006.76
1003.32 1000.97 997.22 994.11 993.59 993.06 993.05 992.83 993.63 993.28 993.97 993.66 992.68 992.24 992.14 991.61 991.42 991.11 991.23 992.61 994.19 995.42 996.41 997.53 998.53 999.61 1000.37 1001.26 1002.21 1003.18 1003.77 1004.12 1004.60 1005.01 1005.32 1005.48 1005.68 1005.87 1006.06 1006.19 1006.27 1006.60 1006.66 1006.63
1005.50 1001.58 997.69 994.69 993.96 993.45 992.53 992.66 993.24 993.34 993.06 993.17 992.89 992.31 991.80 991.63 991.47 991.78 992.21 993.24 994.36 995.29 996.27 997.32 998.39 999.25 1000.09 1001.06 1002.03 1002.82 1003.52 1003.83 1004.33 1004.75 1005.09 1005.47 1005.76 1005.77 1006.10 1006.26 1006.42 1006.56 1006.72 1006.78
1006.04 1002.57 998.24 995.10 993.60 993.28 992.71 992.50 992.91 993.22 992.72 992.49 992.51 991.81 991.32 991.27 991.30 992.02 992.71 993.69 994.48 995.12 995.93 996.92 998.03 998.92 999.86 1000.87 1001.73 1002.43 1003.10 1003.64 1004.18 1004.56 1004.91 1005.28 1005.61 1005.93 1006.11 1006.25 1006.45 1006.65 1006.79 1007.03
1005.08 1001.76 999.52 997.86 996.59 995.57 993.55 992.72 992.76 992.85 993.17 992.60 992.12 991.98 991.17 990.80 991.75 992.07 992.78 993.70 994.38 994.80 995.67 996.63 997.61 998.52 999.50 1000.66 1001.51 1002.14 1002.83 1003.45 1004.05 1004.45 1004.83 1005.30 1005.70 1005.93 1006.08 1006.23 1006.51 1006.93 1007.05 1007.43
1004.97 1002.46 999.96 998.40 997.39 996.19 994.61 993.30 992.82 993.03 993.14 993.07 992.63 992.01 992.21 991.52 991.78 992.27 992.87 993.30 993.76 994.40 995.23 996.32 997.26 998.14 999.17 1000.34 1001.18 1001.91 1002.58 1003.30 1003.98 1004.39 1004.72 1005.31 1005.57 1005.80 1006.11 1006.39 1006.55 1007.08 1007.65 1007.59
1005.00 1003.20 1000.51 997.97 997.02 996.32 994.95 993.88 993.29 993.16 993.30 993.12 992.54 992.20 992.28 992.09 991.99 992.11 992.20 993.06 993.30 993.90 994.68 995.69 996.71 997.71 998.87 999.99 1000.86 1001.67 1002.40 1003.21 1003.89 1004.31 1004.71 1005.23 1005.52 1005.81 1006.10 1006.18 1006.61 1007.32 1007.75 1008.29
1004.57 1003.56 1001.52 997.89 997.01 996.00 994.34 993.87 993.59 993.64 993.58 993.50 993.49 992.95 992.57 992.44 992.23 991.94 991.85 992.43 993.18 993.60 994.30 995.41 996.38 997.46 998.71 999.70 1000.57 1001.43 1002.18 1002.99 1003.60 1004.06 1004.53 1005.04 1005.35 1005.70 1006.01 1006.26 1006.59 1007.28 1007.98 1008.37
1004.27 1003.89 1002.16 998.98 997.09 995.60 994.95 995.89 995.03 994.35 994.80 995.54 994.82 993.91 993.44 993.14 993.10 992.86 992.52 992.20 992.50 993.22 994.16 995.16 995.98 997.11 998.36 999.36 1000.24 1001.04 1001.76 1002.61 1003.18 1003.67 1004.26 1004.78 1005.15 1005.66 1006.09 1006.46 1006.87 1007.03 1007.69 1008.05
1003.71 1003.75 1003.31 1000.28 997.71 996.00 997.03 997.47 997.22 996.83 996.05 997.38 997.12 996.30 995.76 995.24 993.99 993.31 994.01 993.57 992.61 992.95 993.72 994.74 995.90 996.91 997.98 999.02 1000.03 1000.71 1001.35 1002.10 1002.70 1003.25 1003.94 1004.54 1005.02 1005.59 1006.09 1006.64 1007.01 1007.07 1007.44 1007.76
1003.86 1003.80 1003.18 1001.52 998.73 997.94 998.75 997.91 997.54 997.68 998.83 998.63 998.21 997.60 997.08 996.32 995.04 994.81 995.11 994.64 993.97 993.15 993.85 994.82 995.56 996.29 997.39 998.60 999.70 1000.35 1000.95 1001.62 1002.32 1002.96 1003.67 1004.39 1005.02 1005.60 1006.15 1006.83 1007.13 1007.22 1007.30 1007.79
1004.11 1003.76 1003.15 1002.58 1000.40 999.72 999.97 998.72 998.57 999.89 999.64 999.25 998.70 998.16 997.62 996.94 996.40 995.77 995.25 994.88 994.23 993.44 993.71 994.60 995.29 995.99 997.12 998.20 999.19 999.87 1000.52 1001.30 1001.98 1002.66 1003.40 1004.20 1004.98 1005.42 1006.18 1006.86 1007.13 1007.28 1007.59 1008.07
1004.96 1004.06 1003.08 1002.09 1002.16 1001.74 1001.40 1000.81 1000.87 1000.74 1000.10 999.63 999.04 998.45 997.94 997.19 996.42 995.77 995.13 994.69 994.17 993.59 993.67 994.40 995.29 995.89 996.65 997.61 998.47 999.19 1000.11 1000.95 1001.60 1002.37 1003.20 1004.07 1004.84 1005.40 1006.09 1006.71 1007.09 1007.22 1007.55 1007.64
1004.99 1004.63 1003.93 1002.63 1001.79 1001.66 1002.26 1002.04 1001.74 1001.33 1000.60 999.97 999.27 998.49 997.83 996.98 996.31 995.46 994.80 994.27 993.86 993.46 993.47 993.97 994.68 995.58 996.05 996.98 997.91 998.66 999.67 1000.47 1001.22 1002.11 1003.01 1003.91 1004.63 1005.25 1005.92 1006.38 1006.86 1006.82 1007.11 1007.23
1006.85 1006.10 1004.66 1002.94 1002.28 1002.17 1002.61 1002.67 1002.39 1001.93 1001.16 1000.26 999.44 998.57 997.76 996.84 995.85 995.22 994.51 994.04 993.56 993.01 993.09 993.39 993.89 994.61 995.62 996.28 997.24 998.15 999.08 999.97 1000.82 1001.84 1002.65 1003.54 1004.24 1005.10 1005.59 1005.88 1006.33 1006.55 1006.93 1007.17
1006.48 1005.83 1005.22 1004.21 1003.64 1003.28 1002.83 1002.85 1002.58 1002.04 1001.43 1000.51 999.53 998.49 997.69 996.82 995.80 994.99 994.11 993.60 993.20 992.64 992.47 992.87 993.41 994.18 995.03 995.99 996.48 997.45 998.35 999.34 1000.35 1001.28 1002.06 1002.77 1003.35 1004.49 1004.86 1005.49 1006.44 1007.43 1007.69 1007.74
Wind_Speed
23 21 29 41 34 26 25 29 29 22 21 21 27 28 23 18 18 23 20 21 21 21 18 10 7 4 4 7 11 13 14 15 13 11 10 8 8 6 5 5 7 9 9 8
21 31 48 28 28 29 29 29 30 23 22 23 23 28 25 24 22 24 22 23 20 20 15 8 3 4 7 10 12 14 15 16 12 9 6 4 4 4 3 3 4 7 8 7
34 42 25 32 30 30 31 30 24 27 19 22 24 29 30 26 26 22 17 18 23 20 15 5 5 6 9 11 13 15 16 15 11 9 7 5 4 4 5 5 5 5 6 7
31 33 30 32 36 34 32 25 24 25 21 24 21 24 27 21 21 22 23 20 20 15 8 5 7 9 10 12 14 16 15 13 10 9 7 5 3 4 1 3 2 4 7 6
30 29 35 32 43 30 31 22 23 24 23 25 27 22 21 19 21 25 20 19 18 8 6 9 9 11 13 15 16 15 14 12 11 8 6 6 4 3 3 2 4 6 4 3
28 17 25 42 20 29 21 17 18 18 17 23 23 22 22 23 27 24 22 14 15 8 7 9 11 14 15 16 15 14 14 12 11 9 7 4 4 3 3 3 4 4 1 4
21 29 19 21 28 26 27 22 12 14 16 17 19 20 20 23 18 25 18 9 9 9 10 14 16 16 17 17 16 14 13 12 11 9 7 6 5 3 4 5 2 2 3 4
22 21 32 21 30 21 29 27 14 19 16 14 21 12 15 10 22 25 21 11 9 11 12 15 17 17 18 17 16 14 13 12 11 9 7 5 5 4 4 2 2 1 4 5
18 28 30 22 27 28 30 27 22 11 10 8 13 14 16 17 21 15 15 16 13 10 13 16 18 17 17 16 15 13 12 11 10 9 6 5 5 3 2 1 1 2 5 5
6 13 24 34 25 27 28 22 22 16 18 16 12 10 8 8 11 12 13 14 13 13 15 17 17 17 15 15 13 12 11 11 10 9 6 6 5 3 1 2 2 4 4 6
14 9 15 28 25 27 20 25 20 17 13 14 8 8 9 17 10 12 12 13 15 16 17 18 17 16 16 15 14 12 11 11 10 8 6 5 4 3 1 1 3 4 6 8
4 8 13 25 24 24 27 21 26 13 20 11 5 3 2 7 2 10 7 10 15 17 18 18 18 17 16 15 14 12 11 11 10 7 7 5 4 3 1 3 3 4 6 8
4 10 11 15 22 21 27 23 26 17 15 19 12 3 6 6 7 4 7 13 16 18 19 19 18 17 16 15 13 13 12 10 9 8 7 6 4 3 4 4 4 5 7 6
7 9 17 5 20 14 25 25 26 22 11 13 14 13 8 8 8 7 8 13 16 18 20 19 18 17 16 15 13 13 12 10 9 7 7 6 5 3 5 5 5 6 7 7
5 13 18 13 6 7 12 24 23 26 20 16 12 18 13 11 8 7 8 16 18 19 19 19 19 17 16 15 13 12 12 11 9 7 7 6 5 5 5 6 6 6 7 8
5 6 13 17 13 8 7 9 24 21 23 19 14 15 15 15 11 4 6 16 18 18 19 19 19 19 17 16 14 13 12 11 9 8 8 7 7 6 6 7 7 8 6 7
6 5 9 18 16 6 11 13 17 21 20 20 21 18 13 5 8 8 4 14 16 17 19 21 20 19 17 17 15 14 13 12 10 9 8 8 7 7 7 7 8 9 7 3
10 7 7 11 14 14 10 8 13 14 19 21 18 15 15 12 7 8 1 9 14 15 17 19 18 18 17 17 16 15 14 13 12 10 9 9 8 7 7 7 8 8 7 5
13 7 5 6 11 10 8 9 4 9 10 7 9 16 20 15 13 12 13 8 12 15 14 15 17 18 18 17 17 16 15 14 13 11 10 10 9 8 7 7 6 7 9 7
12 10 5 6 14 14 11 8 6 5 9 9 7 6 7 7 11 4 13 15 5 13 15 16 18 18 19 18 18 16 16 15 14 13 11 10 9 9 7 7 6 6 8 8
10 6 7 7 8 8 11 9 3 12 7 9 8 7 7 9 11 17 14 11 12 8 13 16 20 20 20 19 19 17 16 16 15 13 12 11 9 9 8 7 7 7 7 9
8 7 5 4 6 5 15 4 5 9 7 8 10 9 11 13 15 16 14 11 9 6 14 18 18 19 20 20 19 18 17 15 15 14 13 12 11 8 8 8 8 8 9 9
4 1 2 3 4 4 8 8 8 7 8 10 11 12 12 15 14 14 12 10 8 7 12 15 16 19 20 21 20 19 17 16 16 15 14 13 12 10 10 9 8 8 8 8
2 6 3 8 4 6 4 8 10 11 11 12 12 13 13 14 13 13 11 8 8 9 13 15 17 19 21 21 20 19 19 18 17 16 15 13 12 12 11 9 8 7 7 7
3 6 5 7 4 4 7 9 14 14 13 15 14 14 13 14 13 12 11 8 8 10 13 16 18 19 21 21 21 19 20 19 17 16 15 14 11 12 11 10 9 8 8 5
1 5 4 3 10 7 8 10 15 12 16 18 15 17 14 14 14 14 12 9 8 11 13 16 18 18 19 21 21 20 20 21 18 16 14 13 12 12 11 10 8 9 8 5
Wind_Direction
193 201 214 217 219 239 250 245 247 236 242 244 249 256 256 261 270 276 286 285 288 289 287 287 293 287 173 175 180 185 178 161 165 165 173 180 199 203 220 235 245 252 248 243
188 215 222 218 224 227 239 246 246 249 238 236 251 268 275 271 272 278 279 282 281 284 285 273 259 180 169 159 165 165 161 162 168 161 178 192 198 197 260 263 256 249 245 240
216 221 217 218 221 226 226 234 240 252 255 251 257 265 267 265 258 272 268 262 272 275 274 243 194 171 157 154 156 158 157 160 162 145 151 157 154 211 214 202 224 213 231 240
230 234 217 222 222 217 229 217 241 255 253 251 247 269 263 272 269 265 268 276 268 257 237 213 172 166 156 149 153 152 152 154 149 167 162 177 230 234 81 255 267 253 232 247
223 226 226 221 223 215 236 227 234 240 249 260 247 256 266 261 265 264 260 262 262 240 233 184 173 158 149 152 146 147 145 152 146 158 165 182 217 166 205 255 259 243 243 236
238 223 224 233 219 221 222 218 225 237 245 243 244 254 257 259 265 268 266 264 236 178 163 158 146 144 146 145 143 143 147 145 154 158 160 178 169 224 262 267 287 261 190 186
228 240 235 236 210 204 202 192 200 218 223 247 241 249 255 253 263 245 260 254 158 168 155 154 151 150 151 147 147 149 149 153 158 163 159 170 189 205 242 268 277 284 188 162
221 221 223 212 213 187 193 190 205 215 230 240 216 251 240 256 248 250 255 239 150 170 159 155 153 148 149 153 153 152 156 160 165 165 162 175 169 217 246 213 300 316 130 191
223 230 191 221 211 197 188 209 212 242 230 273 220 226 271 257 254 247 238 219 181 170 157 154 150 152 154 155 154 153 163 160 169 170 166 175 182 241 348 252 181 159 128 169
277 259 224 198 206 209 197 192 197 218 235 227 242 241 239 257 234 223 214 198 183 163 159 156 153 155 156 155 149 157 164 163 169 168 175 175 162 190 243 168 157 139 151 167
285 258 223 185 200 190 190 195 213 211 230 207 229 219 198 238 245 192 191 180 164 166 161 158 155 157 156 152 152 156 167 165 166 169 171 172 162 162 246 150 170 123 169 166
286 290 273 198 205 217 201 203 199 199 196 250 220 228 288 243 313 209 210 146 156 163 158 158 156 160 155 156 153 161 167 168 167 165 173 168 148 180 155 148 138 144 163 165
0 232 225 211 197 206 195 207 194 213 202 206 223 224 206 134 139 144 136 148 155 155 155 157 159 162 159 158 162 165 170 169 163 169 166 160 155 175 112 131 116 135 142 150
250 253 256 191 195 191 202 203 192 207 207 185 212 207 180 137 120 134 142 157 160 161 159 161 163 164 161 162 169 167 173 163 163 171 168 155 175 120 142 122 111 133 130 141
279 246 227 260 316 301 280 205 205 208 217 228 191 229 239 160 64 43 165 168 166 162 165 165 167 166 161 166 170 172 170 164 163 170 163 151 154 134 157 118 115 119 132 136
278 303 269 251 237 240 245 252 206 207 211 228 233 236 240 280 296 269 172 178 173 170 169 168 168 168 166 169 175 170 169 163 166 168 161 156 164 139 148 131 127 124 110 127
292 306 242 233 213 229 230 209 223 210 213 217 222 232 254 268 225 250 152 187 185 178 172 172 173 170 168 171 177 170 168 163 169 173 155 162 160 154 152 146 132 113 132 102
261 304 270 245 177 218 87 37 205 218 213 222 232 235 231 249 270 265 255 195 199 189 176 174 174 170 170 171 175 169 166 168 174 177 165 167 172 157 149 139 129 132 129 124
227 259 278 222 205 187 104 36 346 202 155 10 308 257 247 257 305 284 272 228 203 202 186 183 175 168 167 172 171 171 168 173 178 178 173 173 171 157 154 137 138 145 142 149
208 227 299 256 213 201 64 5 315 279 182 23 342 319 325 308 247 132 11 2 284 195 184 178 173 167 167 172 171 173 173 178 182 180 177 174 170 163 162 137 151 150 141 143
180 213 232 267 243 99 9 344 167 210 70 348 338 328 314 274 291 330 328 329 325 205 189 176 173 172 170 168 171 178 176 183 182 178 174 170 167 166 154 148 155 152 150 124
177 193 181 233 250 171 3 58 332 18 347 342 340 333 315 299 301 300 303 301 302 211 190 182 179 172 170 169 174 180 181 182 179 177 176 169 164 179 155 161 159 159 146 139
236 27 332 310 37 66 15 54 42 1 343 352 336 334 316 305 302 302 297 284 267 237 195 183 187 174 172 173 178 180 179 181 177 176 177 172 169 176 162 167 167 163 172 158
170 21 305 286 68 17 103 29 15 357 340 341 340 334 323 311 308 301 297 279 247 228 202 185 188 185 176 177 181 183 174 181 176 176 177 175 178 176 172 176 176 175 181 170
333 321 303 293 30 50 162 1 351 338 337 334 339 336 334 323 317 310 303 289 260 240 194 194 193 190 186 177 180 182 175 179 178 178 177 179 184 186 178 196 183 188 187 178
248 346 346 330 329 328 334 323 332 326 338 327 338 330 340 333 331 326 313 301 270 236 201 201 196 192 185 184 180 182 178 177 179 182 181 181 184 181 186 189 177 62 21 103